sat.trackr.live / text

‹ back to catalog

STARLINK-31874

NORAD 60603 · 2024-150W

PAYLOAD ACTIVE UNKNOWN

§ Identity

Operator
Country
US
Launch date
2024-08-20
Launch site
AFETR
Launch vehicle
Mass (kg)
RCS (m²)

Purposes: comms

External: N2YO · Heavens-Above · Gunter

§ Orbital elements

Epoch: 2026-05-25T04:25:23.039616Z

Period
93.85 min
Inclination
53.1623°
Eccentricity
0.0001341
Mean motion
15.34401901 rev/d
Perigee alt
461.8 km
Apogee alt
463.6 km
Semi-major
6,840.8 km
B*
-5.0670e-5
RAAN
310.9622°
Arg perigee
107.5763°
Mean anomaly
252.5386°
Rev number
9,976

§ Raw data

STARLINK-318741 60603U 24150W   26145.18429444 -.00002088  00000+0 -50670-4 0  99922 60603  53.1623 310.9622 0001341 107.5763 252.5386 15.34401901 99768

JSON: /api/v1/satellites/60603 · /tle

For live sub-satellite position, see the globe view (requires WebGL).

§ Visibility from observer

Set your observer location to see the next 7 days of passes ≥ 10°. The values pass through the URL so the page stays shareable.

No JS? Fill the form by hand. The geolocation button needs JavaScript.